Dati Storici

Data ora Umidita' aria (%) Temperatura aria (°C) Rad globale (W/m²) Gonioanemometro (°) Tacoanemometro (m/s) Pioggia (mm)
13-06-2020 09:30 67.8 % 23.682 -77.071 0.548 0 0
13-06-2020 09:20 70.2 % 23.428 -72.883 -0.031 0 0
13-06-2020 09:10 67.9 % 23.249 -66.633 0.891 0 0
13-06-2020 09:00 66.6 % 23.309 -67.915 0.336 0 0
13-06-2020 08:50 70.2 % 22.008 -65.545 -0.014 0 0
13-06-2020 08:40 69.9 % 22.087 -77.369 0.9 0 0
13-06-2020 08:30 71.1 % 22.346 -69.699 -0.031 0 0
13-06-2020 08:20 70.4 % 21.896 -78.915 1.582 0 0
13-06-2020 08:10 72 % 22.199 -48.622 1.386 0 0
13-06-2020 08:00 72.6 % 22.26 -47.006 0.954 0 0
13-06-2020 07:50 73.6 % 21.362 -44.679 -0.017 0 0
13-06-2020 07:40 75.3 % 21.155 -40.79 -0.015 0 0
13-06-2020 07:30 76.6 % 20.761 -43.392 -0.014 0 0
13-06-2020 07:20 77.3 % 20.686 -58.124 0.012 0 0
13-06-2020 07:10 77.4 % 20.324 -36.642 0.233 0 0
13-06-2020 07:00 80.4 % 20.302 -80.071 -0.013 0 0
13-06-2020 06:50 81.8 % 19.638 -29.685 -0.015 0 0
13-06-2020 06:40 85.2 % 19.565 -52.569 -0.012 0 0
13-06-2020 06:30 86.5 % 19.07 -42.022 0.473 0 0
13-06-2020 06:20 89.5 % 18.839 -63.502 -0.011 0 0

I dati sono presentati in modo automatico a scopo informativo. In seguito a verifica i dati possono subire modifiche o essere invalidati e non riportati negli archivi definitivi.